CZ-2C R/B - Orbit

View from above orbital plane
View from above orbital plane
View from above satellite
View from above satellite

Ground track
Ground track

The orbit data is extracted from the following two-line orbital elements,

1 28480U 04046B   13144.86053579  .00000077  00000-0  45475-4 0   705
2 28480 098.0555 326.7575 0141737 291.2466 208.7036 14.25116786442775
Epoch (UTC): 24 May 2013 20:39:10
Eccentricity: 0.0141737
inclination: 98.0555°
perigee height: 706 km
apogee height: 910 km
right ascension of ascending node: 326.7575°
argument of perigee: 291.2466°
revolutions per day: 14.25116786
mean anomaly at epoch: 208.7036°
orbit number at epoch: 44277

The dashed part of the orbit path shows where the satellite is in the earth's shadow,  

Developed and maintained by Chris Peat, Heavens-Above GmbH. Please read the updated FAQ before sending e-mail. Imprint. DLR